Regional Weather Roundup
Issued by NWS Pendleton, OR

Home | Current Version | Previous Version | Text Only | Print | Product List | Glossary On
Versions: 1 2 3 4 5 6 7 8 9 10 11 12 13 14 15 16 17 18 19 20 21 22 23 24 25 26 27 28 29 30 31 32 33 34 35 36 37 38 39 40 41 42 43 44 45 46 47 48 49 50
014
ASUS46 KPDT 220104
RWRPDT
PENDLETON REGIONAL WEATHER ROUNDUP
NATIONAL WEATHER SERVICE PENDLETON OREGON
500 PM PST SUN JAN 21 2018

NOTE: FAIR INDICATES FEW OR NO CLOUDS BELOW 12,000 FEET WITH NO
SIGNIFICANT WEATHER AND/OR OBSTRUCTIONS TO VISIBILITY.

# INDICATES UNOFFICIAL STATION AND DATA

WAZ520-220210-
EAST SLOPES OF WASHINGTON CASCADES

CITY            SKY/WX      TMP DP  RH  WIND    PRES   REMARKS
#BULLFROG       N/A         34  33  96  CALM    N/A
#CLE ELUM HS    N/A         35  32  89  CALM    29.86R
#EASTON DOT     N/A         33  32  96  CALM    N/A
#ELK HTS DOT    N/A         36  36  100 CALM    N/A
#GLENWOOD       N/A         35  34  96  S1      29.99R
#NELSON 3SW     N/A         30  29  96  CALM    30.16R
#NILE           N/A         35  34  96  CALM    29.20R
#TEANAWAY 4NE   N/A         35  34  96  CALM    N/A
#TROUT LAKE 1NE N/A         33  32  96  CALM    30.00R
#TROUT LAKE 1E  N/A         32  31  96  CALM    29.96R
$$

WAZ521-220210-
SIMCOE HIGHLANDS

CITY            SKY/WX      TMP DP  RH  WIND    PRES   REMARKS
#BICKLETON HS   N/A         35  34  96  W13     29.58R WCI 26
#CENTERVILLE 1SWN/A         39  35  85  W6      29.97R
#GOLDENDALE 1NE N/A         41  27  57  SW3     N/A
#GOLDENDALE 4W  N/A         40  30  67  W8      29.99R
#GOODNOE HILLS  N/A         42  36  79  W8      29.87R
#LYLE 6NE       N/A         37  36  96  CALM    30.01R
#PITT 4SE       N/A         35  34  96  SW2     30.03R
$$

WAZ026-220210-
KITTITAS VALLEY

CITY            SKY/WX      TMP DP  RH  WIND    PRES   REMARKS
ELLENSBURG AP   MOCLDY      38  33  82  E5      29.89R
#ELLENSBURG CWU N/A         39  35  85  S1      29.88R
#ELLENSBURG 3NE N/A         38  35  89  CALM    27.97S
#ELLENSBURG 1E  N/A         38  34  85  CALM    29.99R
#KITTITAS 3S    N/A         40  35  82  CALM    29.92R
#MANASTASH RDG  N/A         36  36  100 CALM    N/A
#ROCKY CYN DOT  N/A         38  34  85  CALM    N/A
#RYEGRASS DOT   N/A         38  31  76  CALM    N/A
$$

WAZ027-220210-
YAKIMA VALLEY

CITY            SKY/WX      TMP DP  RH  WIND    PRES   REMARKS
SUNNYSIDE AP    CLOUDY      44  35  70  SE8     29.94R
YAKIMA AIRPORT  PTCLDY      45  34  65  MISG    29.92R
YAKIMA-VAGABOND MOCLDY      41  33  73  S9      29.89R
#DONALD 2NE     N/A         43  22  43  SE6     28.77R
#GRANDVIEW      N/A         46  35  65  SW2     29.98R
#MABTON         N/A         48  39  71  S7      29.94R
#MOXEE 2E       N/A         42  N/A N/A CALM    29.90R
#NACHES 2SW     N/A         39  35  85  CALM    29.88R
#OUTLOOK DOT    N/A         47  37  68  CALM    29.89S
#PARKER DOT     N/A         44  35  70  NW1     29.91R
#TERRACE HTS    N/A         43  36  76  CALM    29.91R
#TOPPENISH      N/A         46  37  71  CALM    29.86R
#I82 S UMTANUM RN/A         41  31  67  SW9     N/A
#UNION GAP DOT  N/A         43  34  70  SW6     29.94R
#W YAKIMA       N/A         42  35  76  W2      29.94R
#WHITE SWAN 5E  N/A         41  35  79  CALM    29.96R
#WILEY CITY 3W  N/A         40  32  73  S1      29.87R
#ZILLAH DOT     N/A         46  35  65  SW5     N/A
$$

WAZ028-220210-
LOWER COLUMBIA BASIN...WASHINGTON

CITY            SKY/WX      TMP DP  RH  WIND    PRES   REMARKS
PASCO           CLOUDY      45  38  76  E12     29.97R WCI 39
PROSSER AWOS    N/A         46  37  71  VRB3    29.98R
RICHLAND AWOS   CLOUDY      46  40  79  NE7     29.97R
#BENTON CITY    N/A         47  37  68  S3      29.87R
#CONNELL 5N     N/A         40  39  96  SW6     29.98R
#CONNELL 5NW    N/A         41  38  89  S7      29.93R
#ELTOPIA 6NW    N/A         42  39  89  S1      28.92R
#KAHLOTUS       N/A         43  37  79  W10G28  29.98R
#KENNEWICK 3S   N/A         45  39  79  SW7     29.97R
#PATERSON       N/A         48  38  68  NW5     29.97R
#PROSSER DOT    N/A         47  37  68  CALM    29.95R
#SAGEMOOR 2W    N/A         42  38  86  S9      29.85R
#TOUCHET 2S     N/A         46  37  71  S16     29.96R WCI 39
#WEST PASCO     N/A         45  40  82  CALM    29.96R
$$

WAZ029-220210-
FOOTHILLS OF THE BLUES...WASHINGTON

CITY            SKY/WX      TMP DP  RH  WIND    PRES   REMARKS
WALLA WALLA AP  CLOUDY      50  33  52  S25G33  29.95R
#CLYDE 6NW      N/A         43  37  79  S12     29.98R WCI 37
#DELANEY DOT    N/A         44  35  70  W1      29.98F
#LOWDEN 2SE     N/A         48  37  65  S15G25  29.93R WCI 42
#PLEASANT VIEW 1N/A         40  36  85  S5      30.03R
#PRESCOTT       N/A         45  38  76  CALM    29.98S
#WHITMAN COLLEGEN/A         47  35  63  SE7     30.02R
#WAITSBURG 5S   N/A         43  35  73  SE20G26 30.06F WCI 34
#WAITSBURG 6SSE N/A         45  32  60  E10     29.80F
#WAITSBURG 8N   N/A          0  N/A N/A S7      29.71S
#WALLA WALLA 5E N/A         48  35  60  SE21G35 N/A    WCI 41
#WALLA WALLA U  N/A         48  36  63  S9      29.98F
#WHITMAN MISSIONN/A         47  36  65  CALM    29.99R
$$

WAZ030-220210-
BLUE MOUNTAINS...WASHINGTON

CITY            SKY/WX      TMP DP  RH  WIND    PRES   REMARKS
#DIXIE 5SE      N/A         39  31  73  SE15G26 29.85R WCI 31
$$

ORZ009-041-WAZ024-220210-
COLUMBIA RIVER GORGE

CITY            SKY/WX      TMP DP  RH  WIND    PRES   REMARKS
HOOD RIVER AP   MOCLDY      39  37  92  CALM    30.00R
THE DALLES AP   PTCLDY      42  38  86  N16     30.00R WCI 34
#ARLINGTON AIRPON/A         44  40  86  W10     30.00R
#ARLINGTON HS   N/A         46  39  76  N1      29.89R
#CELILO DOT     N/A         44  37  76  SW3     N/A
#LYLE           N/A         42  40  93  NW2     30.02R
#MARYHILL       N/A         45  37  73  N13     29.83R WCI 39
#MURDOCK        N/A         41  39  93  NW6     29.97R
#RUFUS DOT      N/A         47  N/A N/A W8      N/A
#SMITHVILLE     N/A         43  39  86  N10     29.95R

$$

ORZ510-220210-
NORTH CENTRAL OREGON

CITY            SKY/WX      TMP DP  RH  WIND    PRES   REMARKS
#ANTELOPE       N/A         43  33  67  SW6     29.89R
#COW CYN RST AREN/A         43  N/A N/A SW14    N/A    WCI 36
#DUFUR          N/A         42  38  86  CALM    29.95R
#DUFUR 9E       N/A         37  36  96  CALM    30.04R
#GRASS VALLEY 1SN/A         41  37  86  SW5     29.96R
#KENT DOT       N/A         44  25  47  SW18G30 N/A    WCI 36
#MAUPIN SCHOOL  N/A         48  37  65  W7      30.02R
#SHANIKO 5WSW   N/A         39  N/A N/A S16G28  N/A    WCI 30
#TYGH VALLEY 2NEN/A         46  37  71  N7      29.98R
#WAPANITIA AIRPON/A         41  36  82  CALM    30.03R
#WASCO DOT      N/A         43  40  89  W8      N/A
#WASCO 5NE      N/A         42  34  73  W5      29.99R
$$

ORZ511-220210-
CENTRAL OREGON

CITY            SKY/WX      TMP DP  RH  WIND    PRES   REMARKS
BEND AIRPORT    LGT DRIZZLE 41  32  70  S16     29.98R WCI 33
PRINEVILLE AP   CLOUDY      43  30  60  S12     29.96R WCI 37
REDMOND AIRPORT CLOUDY      43  31  62  S17G26  29.95R WCI 35
#ASHWOOD SCHOOL N/A         46  31  56  S7      29.91R
#BEND 1SW       N/A         35  33  92  NW1     N/A
#BEND-AWBREY    N/A         36  34  92  S12     30.04R WCI 28
#BEND-KIM LN    N/A         39  34  82  S2      29.97R
#CULVER         N/A         42  33  70  SW5     29.85R
#CULVER 8W      N/A         44  29  55  SW3     29.97R
#LAKE BILLY CHINN/A         43  N/A N/A S7      30.05R
#POWELL BUTTE   N/A         42  28  57  S10     29.91R
#PRINEVILLE     N/A         44  33  65  CALM    30.10S
#PRINEVILLE 3N  N/A         43  32  65  S10     30.02R
#WARM SPRINGS   N/A         46  37  71  CALM    29.82R

$$


ORZ509-220210-
EAST SLOPES OF OREGON CASCADES

CITY            SKY/WX      TMP DP  RH  WIND    PRES   REMARKS
SISTERS AWOS    N/A         41  34  76  W13     29.91R WCI 34
#BLUE BOX PASS  N/A         N/A N/A N/A CALM    N/A
#CAMP SHERMAN   N/A         38  33  82  CALM    30.08R
#LA PINE DOT    N/A         34  33  96  S3      N/A
#LA PINE 4NW    N/A         32  29  89  CALM    30.14R
#LAVA BUTTE DOT N/A         33  29  85  SE6     N/A
#SISTERS ODOT   N/A         41  33  73  NW8     N/A
#SISTERS 3N     N/A         38  30  73  W3      29.97R
#SUNRIVER       N/A         34  32  92  S3      30.06R
#TUMALO 3W      N/A         38  33  82  SE7     29.87R
#WANOGA BUTTE D N/A         27  27  100 W15G24  N/A    WCI 15

$$

ORZ044-220210-
LOWER COLUMBIA BASIN...OREGON

CITY            SKY/WX      TMP DP  RH  WIND    PRES   REMARKS
HERMISTON       CLOUDY      47  39  74  NW5     29.96R
#BOARDMAN SCHOOLN/A         50  39  66  SW5     29.96R
#BOARDMAN 8SW   N/A         47  40  76  W3      29.99R
#I-84 EX 198 DOTN/A         47  32  56  NE25G35 N/A    WCI 39
#IONE SCHOOL    N/A         49  32  52  S12G26  29.98R WCI 44
#UMATILLA       N/A         46  40  79  CALM    29.90R
$$

ORZ507-220210-
NORTHERN FOOTHILLS OF THE BLUES

CITY            SKY/WX      TMP DP  RH  WIND    PRES   REMARKS
PENDLETON AIRPT CLOUDY      45  34  65  S13     29.96R WCI 39
#ADAMS 3WNW     N/A         38  36  92  E1      30.00S
#ATHENA         N/A         41  34  76  E7      30.03R
#HELIX SCHOOL   N/A         40  34  79  SE25G35 30.01S WCI 29
#HELIX 3N       N/A         40  34  79  SE22G31 29.98R WCI 30
#HOLDMAN 6E     N/A         38  37  96  SE7     29.80R
#M-F GROVE ELEM N/A         45  32  60  SE7     29.95R
#M-FREEWATER 5SEN/A         44  34  68  E20G32  29.97R WCI 36
#PENDLETON DNTN N/A         48  32  54  W7      N/A
#PDT AQUATIC CTRN/A         47  33  58  SE14    29.94S WCI 41
#PDT SUNRIDGE   N/A         47  36  65  S15     29.97R WCI 41
#PENDLETON 6SE  N/A         46  35  65  S12G29  29.94R WCI 40
#PENDLETON 7NW  N/A         44  36  73  S10     29.97S
#PILOT ROCK 1S  N/A         47  28  47  SE14G32 29.96R WCI 41
#PILOT ROCK     N/A         46  33  60  CALM    29.97R
#TUTUILLA       N/A         45  32  60  S9      29.98R
#UMAPINE 2E     N/A         46  37  71  SE15    29.94R WCI 40

$$

ORZ508-220210-
SOUTHERN FOOTHILLS OF THE BLUES

CITY            SKY/WX      TMP DP  RH  WIND    PRES   REMARKS
LEXINGTON       PTCLDY      46  32  58  S26G35  29.96R WCI 37
#AJAX           N/A         44  30  58  N17G26  30.08R WCI 36
#CONDON 5W      N/A         38  31  76  CALM    29.90R
#FOSSIL SCHOOL  N/A         43  33  67  S1      29.88R
#HEPPNER EOC    N/A         43  31  62  SE7     29.91R
#HEPPNER 4NE    N/A         41  31  67  S5      29.99R
#LEXINGTON 2SE  N/A         48  32  54  CALM    29.91R
#MIKKALO        N/A         46  35  65  W6      30.04R
#OLEX 4N        N/A         46  39  76  W2      29.94R
#RUGGS 5NE      N/A         41  29  62  N8      30.07S
#RUGGS 2SW      N/A         40  31  70  S15G25  30.02R WCI 32

$$

ORZ502-503-220210-
BLUE MOUNTAINS

CITY            SKY/WX      TMP DP  RH  WIND    PRES   REMARKS
MEACHAM         LGT SNOW    31  27  85  CALM    29.98S FOG
#BATTLE MTN DOT N/A         30  29  96  S10     N/A
#GRANITE        N/A         27  21  78  CALM    29.68R
#HARDMAN 10S    N/A         30  29  96  S5      30.22R
#LADD CYN SMT   N/A         30  27  88  SE20G33 N/A    WCI 17
#LADD CREEK ODOTN/A         N/A N/A N/A S12     N/A
#LONG CREEK HS  N/A         36  32  85  SW25G36 29.98R WCI 24
#N POWDER DOT   N/A         33  24  69  SE25    N/A    WCI 20
#PIKES PEAK     N/A         38  32  79  S32G46  27.99S WCI 25
#SUMMERVILLE 5NWN/A         32  28  85  S5      27.99S
#TOLLGATE       N/A         25  24  96  SW6     30.01R
#TROY SCHOOL    N/A         38  34  85  CALM    29.97R
#UKIAH          N/A         34  31  89  CALM    30.05R
#WESTON 4E      N/A         32  31  96  E13     30.02R WCI 22
$$

ORZ505-220210-
JOHN DAY BASIN

CITY            SKY/WX      TMP DP  RH  WIND    PRES   REMARKS
JOHN DAY        CLOUDY      37  30  75  W7      30.04S
#ANTELOPE 9ESE  N/A         48  33  56  CALM    N/A
#DAYVILLE SCHOOLN/A         42  29  60  E6      29.99R
#MITCHELL 8NW   N/A         39  29  67  S5      30.07R
#MONUMENT HS    N/A         39  32  76  W3      29.96R
#MT. VERNON 5SE N/A         33  28  82  N5      29.96S
#SPRAY SCHOOL   N/A         45  N/A N/A NE6     N/A
#WINLOCK        N/A         43  39  86  CALM    29.94R
$$

ORZ506-220210-
OCHOCO AND JOHN DAY HIGHLANDS

CITY            SKY/WX      TMP DP  RH  WIND    PRES   REMARKS
#HORSE RIDGE DO N/A         37  27  67  S21G29  N/A    WCI 26
#IZEE 6NW       N/A         34  30  85  S3      N/A
#PAULINA ODOT   N/A         37  29  72  E8      N/A
#PINE MTN OBS   N/A         27  26  96  S9      N/A
#PRAIRIE CITY   N/A         33  28  82  CALM    30.20F
#SENECA         N/A         30  N/A N/A N3      N/A
#SENECA 9NW     N/A         29  27  92  CALM    30.26R
$$

ORZ049-220210-
GRANDE RONDE VALLEY

CITY            SKY/WX      TMP DP  RH  WIND    PRES   REMARKS
LA GRANDE       CLOUDY      35  28  75  S16G31  30.07S WCI 25
#COVE SCHOOL    N/A         37  28  70  E9      30.04F
#COVE 6NW       N/A         36  29  75  SE5     30.14F
#ELGIN 3N       N/A         33  28  82  S6      30.02F
#ELGIN 1E       N/A         34  29  82  S2      N/A
#IMBLER SCHOOL  N/A         33  29  85  S7      30.01S
#ISLAND CITY 4N N/A         46  44  93  CALM    30.01R
#LADD CYN DOT   N/A         34  30  85  S23G40  N/A    WCI 22
#UNION 1S       N/A         35  29  78  SE8     30.16R
$$

ORZ050-220210-
WALLOWA COUNTY

CITY            SKY/WX      TMP DP  RH  WIND    PRES   REMARKS
#ENTERPRISE HS  N/A         33  28  82  CALM    30.07R
#IMNAHA SCHOOL  N/A         44  28  53  SE17G32 30.05F WCI 36
#IMNAHA 10S     N/A         31  27  85  SW2     29.99S
#JOSEPH         N/A         35  26  69  CALM    30.18R
#JOSEPH 3N      N/A         34  26  72  W7      30.03R
#JOSEPH 3W      N/A         29  22  75  CALM    29.83R
#LOSTINE        N/A         28  25  88  CALM    30.00R
#LOSTINE 3SE    N/A         29  25  85  W2      30.06S
#MT HOWARD 8000 N/A         20  18  92  S15G40  29.82F WCI  6
#PROMISE 1S     N/A         31  29  92  SW3     30.24R
#WALLOWA LAKE   N/A         31  26  81  S8      30.01R
#WALLOWA SCHOOL N/A         28  26  92  CALM    30.02R



$$



USA.gov is the U.S. government's official web portal to all federal, state and local government web resources and services.